Regional Weather Roundup
Issued by NWS

Home | Current Version | Previous Version | Graphics & Text | Print | Product List | Glossary On
Versions: 1 2 3 4 5 6 7 8 9 10 11 12 13 14 15 16 17 18 19 20 21 22 23 24 25 26 27 28 29 30 31 32 33 34 35 36 37 38 39 40 41 42 43 44 45 46 47 48 49 50
000
ASUS43 KLMK 171102
RWRKY
KENTUCKY REGIONAL WEATHER ROUNDUP
NATIONAL WEATHER SERVICE LOUISVILLE KY
600 AM EST SUN DEC 17 2017

NOTE "FAIR" INDICATES FEW OR NO CLOUDS BELOW 12,000 FEET
WITH NO SIGNIFICANT WEATHER AND/OR OBSTRUCTIONS TO VISIBILITY.

KYZ001>023-026-027-061>063-070>075-171200-
WESTERN AND SOUTH CENTRAL KENTUCKY

CITY           SKY/WX    TMP DP  RH WIND       PRES   REMARKS
PADUCAH        LGT RAIN  43  33  68 SW5       30.17R
HENDERSON      CLOUDY    41  33  73 S3        30.16R
OWENSBORO      CLOUDY    41  32  70 S5        30.17
HOPKINSVILLE   CLOUDY    42  29  60 S3        30.18R
BOWLING GREEN  CLOUDY    41  32  70 CALM      30.18S
GLASGOW        NOT AVBL
$$

KYZ024-025-028>034-038-045-046-053-171200-
NORTH CENTRAL KENTUCKY

CITY           SKY/WX    TMP DP  RH WIND       PRES   REMARKS
LOUISVILLE/SDF CLOUDY    41  31  67 S7        30.16F
LOUISVILLE/LOU CLOUDY    41  32  70 S7        30.17F
FORT KNOX      CLOUDY    40  30  68 S3        30.15F
$$

KYZ035>037-039>044-047>052-055>060-089>105-171200-
NORTHEAST KENTUCKY

CITY           SKY/WX    TMP DP  RH WIND       PRES   REMARKS
LEXINGTON      PTCLDY    39  29  67 S8        30.19F WCI  33
COVINGTON      CLOUDY    39  30  70 S8        30.16S WCI  33
FRANKFORT      CLOUDY    39  28  64 CALM      30.17F
$$

KYZ054-064>069-076>088-106>120-171200-
SOUTHEAST KENTUCKY

CITY           SKY/WX    TMP DP  RH WIND       PRES   REMARKS
JACKSON        PTCLDY    39  26  59 S3        30.19F
LONDON         PTCLDY    33  27  78 CALM      30.20F
SOMERSET       NOT AVBL
MIDDLESBORO    MOCLDY    30  29  94 CALM      30.25F
MONTICELLO     MOSUNNY   34  29  82 CALM      30.21
$$




USA.gov is the U.S. government's official web portal to all federal, state and local government web resources and services.